Погода в Харовске

Россия / Вологодская область     59°57′02″N   40°12′22″E
темп.,
°C
ветер,
м/с
пор.,
м/с
влажн.,
%
обл.,
%
осадки,
мм/ч
давл.,
гПа
погр.,
м
19 сентября, вс
вс1900:00+4св267690 0.0 1029241
03:000св24965 0.0 103076
06:00−1ссв24965 0.0 103077
09:00+4св36715 0.0 1030503
12:00+7св345519 0.0 10301222
15:00+8св455216 0.0 10291303
18:00+4всв3869100 0.0 1030389
21:00+1всв2884100 0.0 1031221
20 сентября, пн
пн2000:000всв278564 0.0 1031143
03:00+3всв4764100 0.0 1031866
06:00+3всв3866100 0.0 1031699
09:00+4в476086 0.0 10311255
12:00+7в465086 0.0 10311426
15:00+8всв4749100 0.0 10291411
18:00+5в396449 0.0 1029440
21:00+3всв3127997 0.0 1030424
21 сентября, вт
вт2100:00+2всв41181100 0.0 1029389
03:00+1в31185100 0.0 1028337
06:00+2в4118299 0.0 1027407
09:00+4в4117148 0.0 1026547
12:00+7в5858100 0.0 1025893
15:00+9в4858100 0.0 10241073
18:00+7в4969100 0.0 1023747
21:00+5в3118086 0.0 1024501
22 сентября, ср
ср2200:00+4всв3108674 0.0 1024369
03:00+2всв3119032 0.0 1023329
06:00+2всв4128963 0.0 1023388
09:00+5всв4127262 0.0 1022510
12:00+9в58555 0.0 1021933
15:00+11всв585329 0.0 10201100
18:00+8всв41166100 0.0 1020705
21:00+6в4127285 0.0 1020624
23 сентября, чт
чт2300:00+6в31086100 0.3 1019621
03:00+6вюв3989100 0.3 1018493
06:00+6вюв3893100 0.1 1018393
09:00+7вюв3793100 0.1 1017364
12:00+8юв2791100 0.0 1017406
15:00+9юв3893100 0.1 1016638
18:00+9ююв3991100 0.1 1015500
21:00+9юв3898100 0.6 1014383